When you browse on this site, cookies collect data to enhance your experience and personalize the content and advertising you see.
Visit our Privacy Policy to learn more. By continuing to use the site, you agree to this use of cookies and data.
  • In Latvia
  • List of Countries
  • For 7 days
  • Water Temperature
  • Satellite Maps
  • Weather Map
  • Weather Widgets
  • user-avatar
    Login

    Hourly Weather Cesis

    Today, 20 July, Saturday

    Time Temperature Precipitation Wind Pressure Humidity
    00:00 +13°C° 0 mm 2 mps 751 mmHg 86%
    01:00 +12°C° 0 mm 2 mps 752 mmHg 89%
    02:00 +12°C° 0 mm 2 mps 752 mmHg 91%
    03:00 +12°C° 0 mm 2 mps 752 mmHg 92%
    04:00 +12°C° 0 mm 2 mps 752 mmHg 93%
    05:00 +13°C° 0 mm 2 mps 752 mmHg 94%
    06:00 +15°C° 0 mm 2 mps 752 mmHg 85%
    07:00 +17°C° 0 mm 2 mps 752 mmHg 76%
    08:00 +19°C° 0 mm 2 mps 753 mmHg 67%
    09:00 +20°C° 0 mm 3 mps 753 mmHg 62%
    10:00 +22°C° 0 mm 3 mps 753 mmHg 56%
    11:00 +24°C° 0 mm 3 mps 753 mmHg 50%
    12:00 +25°C° 0 mm 3 mps 753 mmHg 48%
    13:00 +25°C° 0 mm 3 mps 753 mmHg 46%
    14:00 +25°C° 0 mm 3 mps 753 mmHg 44%
    15:00 +25°C° 0 mm 3 mps 753 mmHg 46%
    16:00 +25°C° 0 mm 3 mps 753 mmHg 48%
    17:00 +24°C° 0 mm 3 mps 754 mmHg 49%
    18:00 +23°C° 0 mm 2 mps 754 mmHg 59%
    19:00 +20°C° 0 mm 2 mps 754 mmHg 68%
    20:00 +18°C° 0 mm 2 mps 754 mmHg 78%
    21:00 +18°C° 0 mm 1 mps 754 mmHg 81%
    22:00 +16°C° 0 mm 1 mps 754 mmHg 85%
    23:00 +14°C° 0 mm 1 mps 755 mmHg 88%

    Tomorrow, 21 July, Sunday

    Time Temperature Precipitation Wind Pressure Humidity
    00:00 +13°C° 0 mm 0 mps 755 mmHg 90%
    01:00 +12°C° 0 mm 0 mps 755 mmHg 91%
    02:00 +12°C° 0 mm 0 mps 755 mmHg 92%
    03:00 +12°C° 0 mm 0 mps 755 mmHg 91%
    04:00 +13°C° 0 mm 0 mps 755 mmHg 91%
    05:00 +14°C° 0 mm 1 mps 755 mmHg 90%
    06:00 +16°C° 0 mm 1 mps 755 mmHg 81%
    07:00 +20°C° 0 mm 1 mps 755 mmHg 73%
    08:00 +22°C° 0 mm 1 mps 755 mmHg 64%
    09:00 +23°C° 0 mm 1 mps 755 mmHg 58%
    10:00 +25°C° 0 mm 1 mps 755 mmHg 52%
    11:00 +26°C° 0 mm 1 mps 755 mmHg 46%
    12:00 +27°C° 0 mm 1 mps 755 mmHg 44%
    13:00 +27°C° 0 mm 2 mps 754 mmHg 42%
    14:00 +28°C° 0 mm 2 mps 754 mmHg 40%
    15:00 +28°C° 0 mm 2 mps 754 mmHg 42%
    16:00 +27°C° 0 mm 2 mps 754 mmHg 44%
    17:00 +27°C° 0 mm 2 mps 753 mmHg 46%
    18:00 +25°C° 0 mm 2 mps 753 mmHg 55%
    19:00 +23°C° 0 mm 1 mps 753 mmHg 64%
    20:00 +22°C° 0 mm 1 mps 753 mmHg 73%
    21:00 +21°C° 0 mm 1 mps 753 mmHg 75%
    22:00 +18°C° 0 mm 2 mps 753 mmHg 77%
    23:00 +17°C° 0 mm 2 mps 753 mmHg 79%

    Day after tomorrow, 22 July, Monday

    Time Temperature Precipitation Wind Pressure Humidity
    00:00 +17°C° 0 mm 2 mps 753 mmHg 79%
    01:00 +17°C° 0 mm 2 mps 753 mmHg 79%
    02:00 +17°C° 0 mm 2 mps 753 mmHg 79%
    03:00 +17°C° 0 mm 2 mps 753 mmHg 82%
    04:00 +16°C° 0 mm 1 mps 753 mmHg 84%
    05:00 +16°C° 0 mm 1 mps 753 mmHg 87%
    06:00 +18°C° 0.1 mm 1 mps 752 mmHg 83%
    07:00 +19°C° 0.1 mm 1 mps 752 mmHg 80%
    08:00 +20°C° 0.1 mm 1 mps 752 mmHg 76%
    09:00 +21°C° 0.4 mm 1 mps 752 mmHg 76%
    10:00 +22°C° 0.4 mm 1 mps 752 mmHg 76%
    11:00 +22°C° 0.4 mm 1 mps 752 mmHg 76%
    12:00 +22°C° 0.6 mm 1 mps 752 mmHg 78%
    13:00 +22°C° 0.6 mm 1 mps 752 mmHg 79%
    14:00 +21°C° 0.6 mm 1 mps 752 mmHg 81%
    15:00 +21°C° 0.5 mm 1 mps 752 mmHg 85%
    16:00 +20°C° 0.5 mm 1 mps 752 mmHg 90%
    17:00 +19°C° 0.5 mm 1 mps 752 mmHg 94%
    18:00 +19°C° 0.3 mm 1 mps 752 mmHg 94%
    19:00 +19°C° 0.3 mm 1 mps 752 mmHg 95%
    20:00 +18°C° 0.3 mm 1 mps 752 mmHg 95%
    21:00 +18°C° 0 mm 1 mps 752 mmHg 95%
    22:00 +16°C° 0 mm 1 mps 752 mmHg 95%
    23:00 +16°C° 0 mm 1 mps 753 mmHg 95%

    23 July, Tuesday

    Time Temperature Precipitation Wind Pressure Humidity
    00:00 +15°C° 0 mm 1 mps 753 mmHg 95%
    01:00 +15°C° 0 mm 1 mps 753 mmHg 95%
    02:00 +15°C° 0 mm 1 mps 753 mmHg 95%
    03:00 +14°C° 0 mm 1 mps 753 mmHg 94%
    04:00 +14°C° 0 mm 1 mps 753 mmHg 94%
    05:00 +14°C° 0 mm 1 mps 753 mmHg 93%
    06:00 +16°C° 0 mm 1 mps 753 mmHg 88%
    07:00 +19°C° 0 mm 1 mps 753 mmHg 83%
    08:00 +20°C° 0 mm 1 mps 753 mmHg 78%
    09:00 +22°C° 0 mm 1 mps 753 mmHg 67%
    10:00 +24°C° 0 mm 1 mps 753 mmHg 57%
    11:00 +26°C° 0 mm 2 mps 753 mmHg 47%
    12:00 +26°C° 0 mm 2 mps 753 mmHg 49%
    13:00 +26°C° 0 mm 2 mps 753 mmHg 51%
    14:00 +25°C° 0 mm 3 mps 753 mmHg 53%
    15:00 +25°C° 0.1 mm 3 mps 752 mmHg 53%
    16:00 +25°C° 0.1 mm 3 mps 752 mmHg 53%
    17:00 +25°C° 0.1 mm 3 mps 752 mmHg 53%
    18:00 +23°C° 0 mm 2 mps 752 mmHg 63%
    19:00 +21°C° 0 mm 2 mps 752 mmHg 72%
    20:00 +19°C° 0 mm 2 mps 752 mmHg 82%
    21:00 +19°C° 0 mm 1 mps 752 mmHg 87%
    22:00 +16°C° 0 mm 1 mps 752 mmHg 92%
    23:00 +15°C° 0 mm 1 mps 752 mmHg 97%

    24 July, Wednesday

    Time Temperature Precipitation Wind Pressure Humidity
    00:00 +15°C° 0 mm 1 mps 753 mmHg 97%
    01:00 +15°C° 0 mm 1 mps 753 mmHg 98%
    02:00 +15°C° 0 mm 1 mps 753 mmHg 98%
    03:00 +15°C° 0 mm 1 mps 753 mmHg 98%
    04:00 +15°C° 0 mm 1 mps 752 mmHg 99%
    05:00 +15°C° 0 mm 1 mps 752 mmHg 99%
    06:00 +16°C° 0 mm 2 mps 752 mmHg 92%
    07:00 +18°C° 0 mm 2 mps 753 mmHg 85%
    08:00 +19°C° 0 mm 2 mps 753 mmHg 79%
    09:00 +21°C° 0 mm 2 mps 753 mmHg 72%
    10:00 +22°C° 0 mm 3 mps 753 mmHg 65%
    11:00 +24°C° 0 mm 3 mps 753 mmHg 58%
    12:00 +24°C° 0 mm 3 mps 753 mmHg 56%
    13:00 +25°C° 0 mm 3 mps 753 mmHg 54%
    14:00 +25°C° 0 mm 4 mps 753 mmHg 52%
    15:00 +25°C° 0 mm 4 mps 753 mmHg 55%
    16:00 +25°C° 0 mm 4 mps 753 mmHg 57%
    17:00 +23°C° 0 mm 4 mps 753 mmHg 59%
    18:00 +22°C° 0 mm 3 mps 753 mmHg 67%
    19:00 +20°C° 0 mm 2 mps 753 mmHg 74%
    20:00 +19°C° 0 mm 2 mps 753 mmHg 82%
    21:00 +17°C° 0 mm 2 mps 753 mmHg 87%
    22:00 +16°C° 0 mm 2 mps 753 mmHg 92%
    23:00 +15°C° 0 mm 2 mps 753 mmHg 97%

    25 July, Thursday

    Time Temperature Precipitation Wind Pressure Humidity
    00:00 +15°C° 0 mm 1 mps 754 mmHg 96%
    01:00 +15°C° 0 mm 1 mps 754 mmHg 96%
    02:00 +15°C° 0 mm 1 mps 754 mmHg 95%
    03:00 +15°C° 0 mm 1 mps 754 mmHg 92%
    04:00 +15°C° 0 mm 1 mps 754 mmHg 90%
    05:00 +16°C° 0 mm 1 mps 754 mmHg 87%
    06:00 +18°C° 0 mm 1 mps 754 mmHg 82%
    07:00 +18°C° 0 mm 2 mps 754 mmHg 76%
    08:00 +19°C° 0 mm 2 mps 754 mmHg 71%
    09:00 +20°C° 0 mm 2 mps 754 mmHg 63%
    10:00 +21°C° 0 mm 3 mps 754 mmHg 54%
    11:00 +22°C° 0 mm 3 mps 754 mmHg 46%
    12:00 +24°C° 0 mm 3 mps 754 mmHg 46%
    13:00 +24°C° 0 mm 3 mps 755 mmHg 45%
    14:00 +25°C° 0 mm 4 mps 755 mmHg 45%
    15:00 +23°C° 0 mm 4 mps 755 mmHg 48%
    16:00 +23°C° 0 mm 4 mps 755 mmHg 51%
    17:00 +22°C° 0 mm 4 mps 755 mmHg 54%
    18:00 +21°C° 0 mm 3 mps 755 mmHg 61%
    19:00 +20°C° 0 mm 3 mps 755 mmHg 69%
    20:00 +18°C° 0 mm 2 mps 756 mmHg 76%
    21:00 +17°C° 0 mm 2 mps 756 mmHg 80%
    22:00 +16°C° 0 mm 2 mps 756 mmHg 83%
    23:00 +15°C° 0 mm 1 mps 756 mmHg 87%
    Show more